This demonstration page uses our WeatherBlox Daily Observations layout. Learn more.

Left ArrowRight Arrow

39.08367, -84.50855

Hourly Observations for April 5, 2017

Temp ( °F °C ) Dew Point ( °F °C ) Humidity (%) Winds ( mph kmh ) Pressure ( in mb ) Visibility ( mi km ) Precip ( " mm )
12:53 am 00:53 Clear 50 10 48 8.9 93 93 NNE 8 13 29.92 1013 10 16.0934 0 0
1:53 am 01:53 Clear 49 9.4 46 7.8 90 90 NE 8 13 29.92 1013 10 16.0934 0 0
2:53 am 02:53 Clear 48 8.9 45 7.2 89 89 NE 7 11 29.91 1013 10 16.0934 0 0
3:53 am 03:53 Clear 48 8.9 45 7.2 89 89 NE 7 11 29.9 1012 10 16.0934 0 0
4:53 am 04:53 Clear 47 8.3 44 6.7 90 90 NE 5 7 29.89 1012 10 16.0934 0 0
5:53 am 05:53 Partly Cloudy 47 8.3 43 6.1 86 86 NE 5 7 29.89 1012 10 16.0934 0 0
6:53 am 06:53 Mostly Clear 48 8.9 43 6.1 83 83 E 6 9 29.88 1012 10 16.0934 0 0
7:53 am 07:53 Mostly Cloudy 49 9.4 43 6.1 80 80 E 3 6 29.88 1012 10 16.0934 0 0
8:53 am 08:53 Partly Cloudy 51 10.6 43 6.1 74 74 E 9 15 29.85 1011 10 16.0934 0 0
9:53 am 09:53 Mostly Sunny 55 12.8 45 7.2 69 69 E 10 17 29.8 1009 10 16.0934 0 0
10:53 am 10:53 Sunny 60 15.6 48 8.9 65 65 E 10 17 29.75 1008 10 16.0934 0 0
11:53 am 11:53 Sunny 63 17.2 50 10 63 63 ESE 9 15 29.72 1007 10 16.0934 0 0
12:53 pm 12:53 Mostly Sunny 68 20 52 11.1 57 57 SE 9 15 29.66 1005 10 16.0934 0 0
1:53 pm 13:53 Sunny 72 22.2 55 12.8 55 55 SSE 14 22 29.61 1003 10 16.0934 0 0
2:53 pm 14:53 Sunny 75 23.9 56 13.3 52 52 SE 10 17 29.54 1000 10 16.0934 0 0
3:53 pm 15:53 Mostly Cloudy 77 25 56 13.3 48 48 S 13 20 29.48 998 10 16.0934 0 0
4:53 pm 16:53 Partly Cloudy 77 25 54 12.2 45 45 SSE 16 26 29.42 996 10 16.0934 0 0
5:53 pm 17:53 Mostly Sunny 77 25 54 12.2 45 45 SSE 17 28 29.37 995 10 16.0934 0 0
6:22 pm 18:22 Windy with Storms Likely 72 22.2 57 13.9 59 59 SSW 24 39 29.41 996 6 9.65604 0.01 0.254
6:53 pm 18:53 Cloudy with Light Thunderstorms 63 17.2 58 14.4 84 84 SW 7 11 29.43 997 10 16.0934 0.09 2.286
7:13 pm 19:13 Cloudy with Nearby Thunderstorms 62 16.7 58 14.4 86 86 SSE 6 9 29.44 997 10 16.0934 0 0.0254
7:53 pm 19:53 Cloudy with Thunderstorms 60 15.6 60 15.6 100 100 Calm 29.43 997 10 16.0934 0.01 0.254
7:57 pm 19:57 Mostly Cloudy 60 15.6 60 15.6 100 100 S 3 6 29.44 997 10 16.0934 0 0
8:53 pm 20:53 Clear 58 14.4 57 13.9 97 97 SW 5 7 29.42 996 10 16.0934 0 0
9:05 pm 21:05 Partly Cloudy with Light Thunderstorms 59 15 58 14.4 96 96 WSW 8 13 29.44 997 4 6.43736 0.06 1.524
9:27 pm 21:27 Partly Cloudy 58 14.4 58 14.4 100 100 Calm 29.44 997 10 16.0934 0.07 1.778
9:53 pm 21:53 Mostly Cloudy 57 13.9 57 13.9 100 100 SSW 3 6 29.44 997 10 16.0934 0.07 1.778
10:53 pm 22:53 Mostly Clear 57 13.9 57 13.9 100 100 SSW 7 11 29.44 997 10 16.0934 0 0
11:53 pm 23:53 Mostly Clear with Mist and Fog 55 12.8 55 12.8 100 100 SW 5 7 29.44 997 6 9.65604 0 0

Powered by AerisWeather